Regional Weather Roundup
Issued by NWS

Home | Current Version | Previous Version | Text Only | Print | Product List | Glossary Off
Versions: 1 2 3 4 5 6 7 8 9 10 11 12 13 14 15 16 17 18 19 20 21 22 23 24 25 26 27 28 29 30 31 32 33 34 35 36 37 38 39 40 41 42 43 44 45 46 47 48 49 50

000
ASUS43 KMPX 251101
RWRMN
WEATHER ROUNDUP FOR MINNESOTA
NATIONAL WEATHER SERVICE TWIN CITIES/CHANHASSEN MN
600 AM CDT FRI MAY 25 2018


NOTE: "FAIR" INDICATES FEW OR NO CLOUDS BELOW 12,000 FEET WITH NO
SIGNIFICANT WEATHER AND/OR OBSTRUCTIONS TO VISIBILITY. N/A MEANS
CURRENT SKY AND/OR WEATHER CONDITIONS ARE NOT AVAILABLE.

MNZ060>063-068>070-251200-
   Twin Cities Metro

CITY           SKY/WX    TMP DP  RH WIND       PRES   REMARKS
TWIN CITIES    CLOUDY    67  65  93 SE6       29.81F
ST PAUL        CLOUDY    66  63  90 SE8       29.82F
CRYSTAL        FAIR      66  63  90 SE8       29.79F
BLAINE         FAIR      66  64  94 SE10      29.81S
LAKEVILLE      MOCLDY    64  64 100 CALM      29.83S
EDEN PRAIRIE   FAIR      65  62  90 SE8       29.81S
SOUTH ST PAUL  MOCLDY    65  65 100 SE6       29.82F
LAKE ELMO      FAIR      64  63  94 SE9       29.84S
$$
MNZ001>005-007-008-013>017-022>024-027-028-251200-
   Northwest Minnesota

CITY           SKY/WX    TMP DP  RH WIND       PRES   REMARKS
BEMIDJI        FAIR      64  61  90 SW5       29.72R
HALLOCK        FAIR      55  52  88 S7        29.65S
ROSEAU         FAIR      64  57  77 SW6       29.65S
WARROAD        FAIR      63  57  82 SW9       29.65R
THIEF RVR FALL FAIR      59  56  89 SW3       29.70R
CROOKSTON      FAIR      59  54  82 SW5       29.69S
FOSSTON        FAIR      57  55  94 S7        29.72R
DETROIT LAKES  FAIR      63  59  88 W3        29.75R
MOORHEAD       FAIR      61  54  77 SW5       29.73R
PARK RAPIDS    FAIR      61  59  93 S6        29.74R
MAHNOMEN       FAIR      60  57  89 S8        29.72R
$$
MNZ006-009>011-018-025>026-251200-
   North Central Minnesota

CITY           SKY/WX    TMP DP  RH WIND       PRES   REMARKS
BAUDETTE       FAIR      62  60  93 SW7       29.64R
FLAG ISLAND    FAIR      64  57  77 SW13      29.60R
INTL FALLS     FAIR      64  62  93 VRB3      29.66S
WASKISH          N/A     64  61  88 CALM      29.68R
BIG FORK       FAIR      64  61  88 S7        29.70S
LONGVILLE      FAIR      64  61  88 S3        29.74R
GRAND RAPIDS   FAIR      65  60  84 S9        29.75S
CRANE LAKE     FAIR      63  61  94 S3        29.70S
ORR            FAIR      63  57  82 S5        29.67F
COOK           FAIR      64  59  82 S5        29.71S
WALKER         FAIR      62  59  91 SW3       29.73R
$$
MNZ012-019>021-037-251200-
   Northeast Minnesota

CITY           SKY/WX    TMP DP  RH WIND       PRES   REMARKS
DULUTH         FAIR      67  60  78 SW15      29.76F
ELY            FAIR      66  59  77 SW7       29.72S
HIBBING        FAIR      62  58  86 CALM      29.73S
EVELETH        FAIR     N/A N/A N/A SW5       29.74F
DULUTH HARBOR  FAIR      54  52  94 CALM      29.76S
TWO HARBORS    FAIR      57  54  88 SW3       29.74R
SILVER BAY     FAIR      63  61  94 SW3       29.73S
G MARAIS ARPRT FAIR      59  55  88 CALM      29.77S FOG
$$
MNZ029>031-032-039>041-046>048-054>057-064-251200-
   West Central Minnesota

CITY           SKY/WX    TMP DP  RH WIND       PRES   REMARKS
FERGUS FALLS   FAIR      63  61  94 SW3       29.71S
WHEATON        CLEAR     66  57  72 SW6       29.77S
MORRIS         CLEAR     63  61  94 S5        29.76S
ALEXANDRIA     FAIR      67  61  81 SW9       29.78F
ELBOW LAKE     FAIR      59  59  99 S8        29.76F
WADENA         FAIR      63  63 100 S6        29.74F
GLENWOOD       FAIR      63  61  94 SW8       29.74S
APPLETON       CLEAR     64  59  82 CALM      29.77S
BENSON         CLEAR     63  59  88 SW6       29.80R
ORTONVILLE     CLEAR     64  61  88 W7        29.77S
MADISON        CLEAR     66  59  77 SW3       29.78S
WILLMAR        FAIR      64  61  88 CALM      29.81S
$$
MNZ033>034-036-042>043-049>051-058-059-251200-
   Central Minnesota

CITY           SKY/WX    TMP DP  RH WIND       PRES   REMARKS
ST CLOUD       FAIR      65  59  81 S6        29.78S
SAUK CENTRE    FAIR      65  59  80 SW7       29.79R
PAYNESVILLE    FAIR      67  63  85 S8        29.79S
PINE RIVER     FAIR      61  57  88 S3        29.78S
BRAINERD       MOCLDY    68  60  75 S9        29.76S
STAPLES        FAIR      63  61  94 S6        29.75S
LONG PRAIRIE   FAIR      61  59  94 SE6       29.78S
LITTLE FALLS   FAIR      64  61  88 S3        29.77S
LITCHFIELD     FAIR      70  64  83 CALM      29.79F
BUFFALO        FAIR      64  60  86 S3        29.81S
MAPLE LAKE     FAIR      65  63  91 SE3       29.80S
HUTCHINSON     FAIR      65  63  91 SE7       29.81S
$$
MNZ037-044-045-052-053-251200-
   East Central Minnesota

CITY           SKY/WX    TMP DP  RH WIND       PRES   REMARKS
PRINCETON      FAIR      66  61  82 SE7       29.80S
MORA           MOCLDY    64  59  82 S7        29.81R
CAMBRIDGE      FAIR      70  57  64 S7        29.80S
RUSH CITY      FAIR      65  60  85 S6        29.80S
MOOSE LAKE     FAIR      66  61  82 S8        29.75F
HINCKLEY       FAIR      64  63  94 S6        29.79S
CLOQUET        FAIR      66  59  77 S9        29.77S
MCGREGOR       FAIR      66  61  82 S8        29.76S
$$
MNZ071>073-080-081-089-090-097-098-251200-
   Southwest Minnesota

CITY           SKY/WX    TMP DP  RH WIND       PRES   REMARKS
MONTEVIDEO     PTCLDY    63  57  82 SW3       29.79R
CANBY          CLEAR     69  58  69 SW6       29.80S
MARSHALL       PTCLDY    67  61  81 SW16      29.80S
REDWOOD FALLS  CLOUDY    65  63  93 S5        29.78F
OLIVIA         CLOUDY    68  63  83 S3        29.79S
PIPESTONE      PTCLDY    63  61  94 W3        29.83S
WORTHINGTON    CLOUDY    68  63  84 SW12      29.83F
JACKSON        CLOUDY    68  61  77 S8        29.84S
TRACY          CLOUDY    70  64  82 SW12      29.81S
SLAYTON        RAIN      69  63  81 SW13      29.83S
$$
MNZ065>067-074>077-082>085-091>093-251200-
   South Central Minnesota

CITY           SKY/WX    TMP DP  RH WIND       PRES   REMARKS
MANKATO        FAIR      68  64  87 SE6       29.83R
NEW ULM        CLOUDY    66  63  88 CALM      29.80S
ST JAMES       MOCLDY    70  63  78 S9        29.82S
FAIRMONT       CLOUDY    69  63  81 SW10      29.84S
GLENCOE        FAIR      67  67 100 SE6       29.80S
FARIBAULT      MOCLDY    70  63  78 CALM      29.86R
OWATONNA       FAIR      68  63  83 CALM      29.85F
WASECA         CLOUDY    70  63  78 CALM      29.86R
ALBERT LEA     FAIR      70  61  73 S7        29.86R
$$
MNZ078>079-086>088-094>096-251200-
   Southeast Minnesota

CITY           SKY/WX    TMP DP  RH WIND       PRES   REMARKS
ROCHESTER      FAIR      67  62  84 S9        29.87S
RED WING       MOCLDY    66  61  82 E5        29.85F
STANTON        CLOUDY    68  63  82 E5        29.85R
DODGE CENTER   FAIR      70  61  73 CALM      29.87R
WINONA         MOCLDY    64  63  94 CALM      29.87S
AUSTIN         FAIR      66  63  88 S5        29.87R
PRESTON        FAIR      66  61  84 S7        29.89F
$$
ABBREVIATIONS USED IN REMARKS
   TC - TEMPERATURES IN CELSIUS
  WCI - WIND CHILL INDEX
   HX - HEAT INDEX
  VSB - VISIBILITY
$$



USA.gov is the U.S. government's official web portal to all federal, state and local government web resources and services.